カタログに戻る

CZ-6A DEB

運用中SSO
NORAD 57576·DEBRIS·🇨🇳 China

打ち上げ Nov 11, 2022 から Taiyuan Satellite Launch Center

Loading…

次のパス (今後24時間)

TLE

最新Source: Space-Track

元期: Sep 13, 2026, 23:10 UTC

1 57576U 22151AHT 26256.96592813  .00001384  00000-0  68655-3 0  9994
2 57576  98.8240 264.1724 0040359  58.0855 302.4236 14.18396922176077

AllMySatでCZ-6A DEBをリアルタイム追跡

Download on the App Store